| time (UTC) | temp F | wind direction | speed MPH | gust MPH | rain 1hr in | rain 24hr in | rain mn in | humidity % | barometer mb |
| 20260510204224 | 62 | 123 | 10.0 | 19.0 | 0.00 | 0.00 | 0.00 | 37 | 1029.7 |
| 20260510203942 | 62 | 63 | 8.0 | 19.0 | 0.00 | 0.00 | 0.00 | 38 | 1029.9 |
| 20260510203439 | 63 | 111 | 7.0 | 15.0 | 0.00 | 0.00 | 0.00 | 34 | 1030.2 |
| 20260510202719 | 64 | 50 | 6.0 | 12.0 | 0.00 | 0.00 | 0.00 | 31 | 1030.1 |
| 20260510202219 | 64 | 57 | 3.0 | 12.0 | 0.00 | 0.00 | 0.00 | 30 | 1030.1 |
| 20260510201719 | 65 | 333 | 6.0 | 17.0 | 0.00 | 0.00 | 0.00 | 31 | 1029.9 |
| 20260510201219 | 65 | 230 | 9.0 | 19.0 | 0.00 | 0.00 | 0.00 | 32 | 1029.9 |
| 20260510201207 | 66 | 148 | 9.0 | 19.0 | 0.00 | 0.00 | 0.00 | 36 | 1029.7 |
| 20260510200220 | 67 | 151 | 10.0 | 20.0 | 0.00 | 0.00 | 0.00 | 34 | 1029.6 |
| 20260510195720 | 68 | 130 | 10.0 | 22.0 | 0.00 | 0.00 | 0.00 | 32 | 1029.3 |
| 20260510195220 | 70 | 151 | 10.0 | 22.0 | 0.00 | 0.00 | 0.00 | 30 | 1029.2 |
| 20260510194945 | 72 | 111 | 12.0 | 25.0 | 0.00 | 0.00 | 0.00 | 28 | 1029.1 |
| 20260510194219 | 74 | 110 | 10.0 | 25.0 | 0.00 | 0.00 | 0.00 | 25 | 1028.9 |
| 20260510194200 | 77 | 192 | 6.0 | 18.0 | 0.00 | 0.00 | 0.00 | 18 | 1028.8 |
| 20260510193219 | 76 | 170 | 6.0 | 18.0 | 0.00 | 0.00 | 0.00 | 18 | 1028.7 |
| 20260510192939 | 76 | 146 | 8.0 | 20.0 | 0.00 | 0.00 | 0.00 | 18 | 1028.8 |
| 20260510192441 | 76 | 207 | 8.0 | 20.0 | 0.00 | 0.00 | 0.00 | 18 | 1028.8 |
| 20260510191720 | 75 | 236 | 7.0 | 16.0 | 0.00 | 0.00 | 0.00 | 19 | 1028.8 |
| 20260510191218 | 75 | 256 | 6.0 | 16.0 | 0.00 | 0.00 | 0.00 | 20 | 1029.1 |
| 20260510190713 | 75 | 205 | 5.0 | 14.0 | 0.00 | 0.00 | 0.00 | 19 | 1029.1 |
| 20260510190206 | 75 | 271 | 5.0 | 14.0 | 0.00 | 0.00 | 0.00 | 18 | 1029.1 |
| 20260510185701 | 74 | 211 | 5.0 | 14.0 | 0.00 | 0.00 | 0.00 | 19 | 1029.1 |
| 20260510185154 | 74 | 163 | 3.0 | 14.0 | 0.00 | 0.00 | 0.00 | 20 | 1028.9 |
| 20260510184648 | 74 | 62 | 2.0 | 14.0 | 0.00 | 0.00 | 0.00 | 18 | 1029.2 |
| 20260510184141 | 74 | 139 | 5.0 | 14.0 | 0.00 | 0.00 | 0.00 | 20 | 1029.2 |
| 20260510183635 | 74 | 255 | 5.0 | 18.0 | 0.00 | 0.00 | 0.00 | 20 | 1029.3 |
| 20260510183129 | 73 | 252 | 4.0 | 18.0 | 0.00 | 0.00 | 0.00 | 20 | 1029.1 |
| 20260510182623 | 73 | 269 | 5.0 | 11.0 | 0.00 | 0.00 | 0.00 | 20 | 1029.2 |
| 20260510182117 | 72 | 190 | 5.0 | 11.0 | 0.00 | 0.00 | 0.00 | 22 | 1029.1 |
| 20260510181611 | 72 | 290 | 5.0 | 12.0 | 0.00 | 0.00 | 0.00 | 22 | 1029.2 |
| 20260510181323 | 71 | 234 | 6.0 | 16.0 | 0.00 | 0.00 | 0.00 | 23 | 1029.3 |
| 20260510180559 | 71 | 238 | 7.0 | 16.0 | 0.00 | 0.00 | 0.00 | 24 | 1029.3 |
| 20260510180053 | 71 | 282 | 8.0 | 17.0 | 0.00 | 0.00 | 0.00 | 25 | 1029.3 |
| 20260510175547 | 71 | 201 | 8.0 | 17.0 | 0.00 | 0.00 | 0.00 | 25 | 1029.3 |
| 20260510175041 | 71 | 297 | 7.0 | 17.0 | 0.00 | 0.00 | 0.00 | 24 | 1029.2 |
| 20260510174535 | 71 | 248 | 5.0 | 17.0 | 0.00 | 0.00 | 0.00 | 26 | 1029.2 |
| 20260510174029 | 71 | 202 | 6.0 | 12.0 | 0.00 | 0.00 | 0.00 | 24 | 1029.4 |
| 20260510173523 | 70 | 329 | 7.0 | 13.0 | 0.00 | 0.00 | 0.00 | 25 | 1029.4 |
| 20260510173016 | 70 | 175 | 8.0 | 17.0 | 0.00 | 0.00 | 0.00 | 26 | 1029.4 |
| 20260510172741 | 70 | 188 | 8.0 | 19.0 | 0.00 | 0.00 | 0.00 | 25 | 1029.4 |
| 20260510172005 | 69 | 166 | 6.0 | 19.0 | 0.00 | 0.00 | 0.00 | 26 | 1029.4 |
| 20260510171459 | 69 | 168 | 7.0 | 16.0 | 0.00 | 0.00 | 0.00 | 27 | 1029.4 |
| 20260510170953 | 69 | 149 | 8.0 | 16.0 | 0.00 | 0.00 | 0.00 | 28 | 1029.4 |
| 20260510170904 | 68 | 170 | 8.0 | 16.0 | 0.00 | 0.00 | 0.00 | 28 | 1029.3 |
| 20260510170751 | 68 | 232 | 7.0 | 16.0 | 0.00 | 0.00 | 0.00 | 27 | 1029.3 |
| 20260510165436 | 68 | 194 | 8.0 | 16.0 | 0.00 | 0.00 | 0.00 | 29 | 1029.2 |
| 20260510164929 | 67 | 194 | 8.0 | 16.0 | 0.00 | 0.00 | 0.00 | 29 | 1029.1 |
| 20260510164423 | 67 | 165 | 7.0 | 15.0 | 0.00 | 0.00 | 0.00 | 30 | 1029.2 |
| 20260510164136 | 67 | 174 | 4.0 | 15.0 | 0.00 | 0.00 | 0.00 | 30 | 1029.2 |
| 20260510163410 | 66 | 284 | 6.0 | 13.0 | 0.00 | 0.00 | 0.00 | 29 | 1029.2 |
| 20260510162905 | 66 | 246 | 7.0 | 13.0 | 0.00 | 0.00 | 0.00 | 30 | 1029.2 |
| 20260510162358 | 66 | 244 | 7.0 | 17.0 | 0.00 | 0.00 | 0.00 | 31 | 1028.9 |
| 20260510162116 | 66 | 192 | 6.0 | 17.0 | 0.00 | 0.00 | 0.00 | 32 | 1028.9 |
| 20260510161612 | 65 | 284 | 5.0 | 13.0 | 0.00 | 0.00 | 0.00 | 28 | 1028.9 |
| 20260510160841 | 65 | 266 | 4.0 | 13.0 | 0.00 | 0.00 | 0.00 | 28 | 1028.9 |
| 20260510160335 | 65 | 206 | 5.0 | 13.0 | 0.00 | 0.00 | 0.00 | 29 | 1028.9 |
| 20260510155828 | 65 | 161 | 5.0 | 13.0 | 0.00 | 0.00 | 0.00 | 29 | 1028.9 |
| 20260510155322 | 64 | 211 | 5.0 | 12.0 | 0.00 | 0.00 | 0.00 | 30 | 1028.8 |
| 20260510155041 | 64 | 158 | 6.0 | 13.0 | 0.00 | 0.00 | 0.00 | 29 | 1028.9 |
| 20260510154311 | 64 | 186 | 6.0 | 13.0 | 0.00 | 0.00 | 0.00 | 29 | 1028.8 |
| 20260510153805 | 64 | 194 | 6.0 | 13.0 | 0.00 | 0.00 | 0.00 | 29 | 1028.8 |
| 20260510153519 | 64 | 190 | 6.0 | 14.0 | 0.00 | 0.00 | 0.00 | 30 | 1028.8 |
| 20260510152753 | 63 | 164 | 5.0 | 14.0 | 0.00 | 0.00 | 0.00 | 31 | 1028.8 |
| 20260510152247 | 63 | 181 | 5.0 | 12.0 | 0.00 | 0.00 | 0.00 | 31 | 1028.7 |
| 20260510151741 | 62 | 132 | 6.0 | 14.0 | 0.00 | 0.00 | 0.00 | 30 | 1028.7 |
| 20260510151234 | 62 | 138 | 6.0 | 13.0 | 0.00 | 0.00 | 0.00 | 31 | 1028.6 |
| 20260510150952 | 62 | 184 | 6.0 | 13.0 | 0.00 | 0.00 | 0.00 | 31 | 1028.6 |
| 20260510150222 | 61 | 169 | 7.0 | 14.0 | 0.00 | 0.00 | 0.00 | 32 | 1028.4 |
| 20260510145716 | 60 | 155 | 7.0 | 15.0 | 0.00 | 0.00 | 0.00 | 33 | 1028.4 |
| 20260510145211 | 60 | 168 | 6.0 | 15.0 | 0.00 | 0.00 | 0.00 | 34 | 1028.4 |
| 20260510144707 | 59 | 157 | 5.0 | 14.0 | 0.00 | 0.00 | 0.00 | 34 | 1028.4 |
| 20260510144207 | 58 | 150 | 4.0 | 11.0 | 0.00 | 0.00 | 0.00 | 35 | 1028.4 |
| 20260510143708 | 58 | 147 | 4.0 | 9.0 | 0.00 | 0.00 | 0.00 | 37 | 1028.4 |
| 20260510143428 | 57 | 131 | 4.0 | 10.0 | 0.00 | 0.00 | 0.00 | 38 | 1028.4 |
| 20260510142924 | 56 | 108 | 5.0 | 10.0 | 0.00 | 0.00 | 0.00 | 38 | 1028.3 |
| 20260510142428 | 56 | 132 | 5.0 | 10.0 | 0.00 | 0.00 | 0.00 | 39 | 1028.3 |
| 20260510141707 | 55 | 173 | 4.0 | 10.0 | 0.00 | 0.00 | 0.00 | 40 | 1028.3 |
| 20260510141207 | 54 | 103 | 4.0 | 10.0 | 0.00 | 0.00 | 0.00 | 40 | 1028.2 |
| 20260510140707 | 54 | 134 | 5.0 | 10.0 | 0.00 | 0.00 | 0.00 | 41 | 1028.2 |
| 20260510140207 | 54 | 109 | 4.0 | 10.0 | 0.00 | 0.00 | 0.00 | 42 | 1028.1 |
| 20260510135707 | 53 | 0 | 3.0 | 9.0 | 0.00 | 0.00 | 0.00 | 41 | 1028.1 |
| 20260510135207 | 53 | 123 | 3.0 | 9.0 | 0.00 | 0.00 | 0.00 | 42 | 1027.9 |
| 20260510134926 | 53 | 150 | 4.0 | 10.0 | 0.00 | 0.00 | 0.00 | 41 | 1027.9 |
| 20260510134516 | 53 | 109 | 4.0 | 12.0 | 0.00 | 0.00 | 0.00 | 41 | 1027.9 |
| 20260510134209 | 53 | 98 | 4.0 | 10.0 | 0.00 | 0.00 | 0.00 | 41 | 1027.9 |
| 20260510133919 | 53 | 140 | 5.0 | 12.0 | 0.00 | 0.00 | 0.00 | 41 | 1027.8 |
| 20260510132925 | 53 | 96 | 5.0 | 11.0 | 0.00 | 0.00 | 0.00 | 40 | 1027.9 |
| 20260510132201 | 54 | 109 | 5.0 | 11.0 | 0.00 | 0.00 | 0.00 | 40 | 1027.8 |
| 20260510131654 | 54 | 100 | 6.0 | 13.0 | 0.00 | 0.00 | 0.00 | 40 | 1027.8 |
| 20260510131149 | 54 | 92 | 6.0 | 13.0 | 0.00 | 0.00 | 0.00 | 40 | 1027.7 |
| 20260510130643 | 54 | 100 | 5.0 | 15.0 | 0.00 | 0.00 | 0.00 | 40 | 1027.6 |
| 20260510130136 | 54 | 105 | 4.0 | 15.0 | 0.00 | 0.00 | 0.00 | 39 | 1027.4 |
| 20260510125631 | 54 | 88 | 5.0 | 11.0 | 0.00 | 0.00 | 0.00 | 39 | 1027.4 |
| 20260510125128 | 54 | 79 | 6.0 | 12.0 | 0.00 | 0.00 | 0.00 | 39 | 1027.3 |
| 20260510124629 | 55 | 85 | 6.0 | 12.0 | 0.00 | 0.00 | 0.00 | 39 | 1027.2 |
| 20260510124400 | 55 | 82 | 5.0 | 10.0 | 0.00 | 0.00 | 0.00 | 38 | 1027.2 |
| 20260510123628 | 55 | 109 | 5.0 | 12.0 | 0.00 | 0.00 | 0.00 | 37 | 1027.2 |
| 20260510123129 | 55 | 127 | 6.0 | 13.0 | 0.00 | 0.00 | 0.00 | 37 | 1027.1 |
| 20260510122629 | 55 | 107 | 6.0 | 13.0 | 0.00 | 0.00 | 0.00 | 37 | 1027.2 |
| 20260510122128 | 55 | 148 | 5.0 | 13.0 | 0.00 | 0.00 | 0.00 | 36 | 1027.1 |
| 20260510121629 | 56 | 124 | 4.0 | 9.0 | 0.00 | 0.00 | 0.00 | 36 | 1027.1 |
| 20260510121351 | 56 | 91 | 4.0 | 9.0 | 0.00 | 0.00 | 0.00 | 35 | 1026.9 |
| 20260510120629 | 56 | 74 | 4.0 | 9.0 | 0.00 | 0.00 | 0.00 | 35 | 1026.9 |
| 20260510120129 | 56 | 88 | 3.0 | 8.0 | 0.00 | 0.00 | 0.00 | 34 | 1026.9 |
| 20260510115628 | 56 | 142 | 3.0 | 9.0 | 0.00 | 0.00 | 0.00 | 34 | 1026.9 |
| 20260510115349 | 56 | 51 | 3.0 | 9.0 | 0.00 | 0.00 | 0.00 | 34 | 1026.8 |
| 20260510114629 | 56 | 17 | 3.0 | 9.0 | 0.00 | 0.00 | 0.00 | 33 | 1026.8 |
| 20260510114129 | 56 | 70 | 2.0 | 9.0 | 0.00 | 0.00 | 0.00 | 33 | 1026.8 |
| 20260510113630 | 57 | 310 | 3.0 | 8.0 | 0.00 | 0.00 | 0.00 | 33 | 1026.7 |
| 20260510113127 | 57 | 30 | 3.0 | 8.0 | 0.00 | 0.00 | 0.00 | 33 | 1026.8 |
| 20260510112626 | 57 | 90 | 4.0 | 13.0 | 0.00 | 0.00 | 0.00 | 33 | 1026.7 |
| 20260510112127 | 57 | 105 | 5.0 | 13.0 | 0.00 | 0.00 | 0.00 | 33 | 1026.7 |
| 20260510111626 | 57 | 42 | 4.0 | 11.0 | 0.00 | 0.00 | 0.00 | 33 | 1026.7 |
| 20260510111127 | 57 | 63 | 5.0 | 12.0 | 0.00 | 0.00 | 0.00 | 33 | 1026.7 |
| 20260510110844 | 57 | 109 | 7.0 | 15.0 | 0.00 | 0.00 | 0.00 | 33 | 1026.5 |
| 20260510110126 | 57 | 124 | 7.0 | 15.0 | 0.00 | 0.00 | 0.00 | 30 | 1026.5 |
| 20260510105626 | 57 | 139 | 6.0 | 15.0 | 0.00 | 0.00 | 0.00 | 30 | 1026.3 |
| 20260510105350 | 56 | 97 | 5.0 | 13.0 | 0.00 | 0.00 | 0.00 | 30 | 1026.4 |
| 20260510104844 | 56 | 152 | 3.0 | 13.0 | 0.00 | 0.00 | 0.00 | 29 | 1026.4 |
| 20260510104123 | 56 | 133 | 3.0 | 8.0 | 0.00 | 0.00 | 0.00 | 29 | 1026.4 |
| 20260510103850 | 56 | 101 | 3.0 | 8.0 | 0.00 | 0.00 | 0.00 | 30 | 1026.5 |
| 20260510103123 | 56 | 128 | 3.0 | 6.0 | 0.00 | 0.00 | 0.00 | 30 | 1026.3 |
| 20260510102622 | 56 | 98 | 3.0 | 6.0 | 0.00 | 0.00 | 0.00 | 30 | 1026.3 |
| 20260510102350 | 56 | 110 | 3.0 | 6.0 | 0.00 | 0.00 | 0.00 | 30 | 1026.2 |
| 20260510101623 | 56 | 93 | 3.0 | 4.0 | 0.00 | 0.00 | 0.00 | 30 | 1026.2 |
| 20260510101123 | 56 | 98 | 4.0 | 7.0 | 0.00 | 0.00 | 0.00 | 30 | 1026.0 |
| 20260510100624 | 56 | 90 | 3.0 | 7.0 | 0.00 | 0.00 | 0.00 | 30 | 1025.9 |
| 20260510100119 | 56 | 80 | 2.0 | 6.0 | 0.00 | 0.00 | 0.00 | 29 | 1026.0 |
| 20260510095619 | 56 | 71 | 1.0 | 2.0 | 0.00 | 0.00 | 0.00 | 29 | 1026.0 |
| 20260510095340 | 57 | 61 | 1.0 | 3.0 | 0.00 | 0.00 | 0.00 | 29 | 1026.0 |
| 20260510094618 | 57 | 61 | 0.0 | 3.0 | 0.00 | 0.00 | 0.00 | 29 | 1025.8 |
| 20260510094119 | 57 | 5 | 0.0 | 2.0 | 0.00 | 0.00 | 0.00 | 29 | 1025.8 |
| 20260510093617 | 57 | 199 | 0.0 | 3.0 | 0.00 | 0.00 | 0.00 | 29 | 1025.7 |
| 20260510093115 | 57 | 159 | 1.0 | 4.0 | 0.00 | 0.00 | 0.00 | 29 | 1025.5 |
| 20260510092614 | 57 | 140 | 2.0 | 6.0 | 0.00 | 0.00 | 0.00 | 29 | 1025.3 |
| 20260510092113 | 57 | 95 | 3.0 | 9.0 | 0.00 | 0.00 | 0.00 | 29 | 1025.2 |
| 20260510091612 | 57 | 92 | 4.0 | 9.0 | 0.00 | 0.00 | 0.00 | 29 | 1025.2 |
| 20260510091112 | 57 | 31 | 4.0 | 9.0 | 0.00 | 0.00 | 0.00 | 29 | 1024.9 |
| 20260510090614 | 56 | 40 | 5.0 | 9.0 | 0.00 | 0.00 | 0.00 | 29 | 1024.9 |
| 20260510090338 | 57 | 49 | 5.0 | 9.0 | 0.00 | 0.00 | 0.00 | 29 | 1024.9 |
| 20260510085611 | 57 | 24 | 6.0 | 10.0 | 0.00 | 0.00 | 0.00 | 29 | 1024.8 |
| 20260510085106 | 57 | 24 | 6.0 | 10.0 | 0.00 | 0.00 | 0.00 | 29 | 1024.9 |
| 20260510084600 | 57 | 13 | 6.0 | 10.0 | 0.00 | 0.00 | 0.00 | 29 | 1024.9 |
| 20260510084315 | 57 | 11 | 5.0 | 9.0 | 0.00 | 0.00 | 0.00 | 29 | 1024.9 |
| 20260510083547 | 57 | 9 | 4.0 | 7.0 | 0.00 | 0.00 | 0.00 | 29 | 1024.8 |
| 20260510083042 | 57 | 42 | 5.0 | 10.0 | 0.00 | 0.00 | 0.00 | 28 | 1024.8 |
| 20260510082535 | 57 | 26 | 5.0 | 10.0 | 0.00 | 0.00 | 0.00 | 28 | 1024.7 |
| 20260510082250 | 57 | 25 | 6.0 | 10.0 | 0.00 | 0.00 | 0.00 | 28 | 1024.8 |
| 20260510081523 | 57 | 22 | 6.0 | 13.0 | 0.00 | 0.00 | 0.00 | 28 | 1024.8 |
| 20260510081017 | 57 | 20 | 6.0 | 13.0 | 0.00 | 0.00 | 0.00 | 28 | 1024.7 |
| 20260510080730 | 57 | 13 | 7.0 | 12.0 | 0.00 | 0.00 | 0.00 | 28 | 1024.7 |
| 20260510080223 | 57 | 25 | 7.0 | 12.0 | 0.00 | 0.00 | 0.00 | 28 | 1024.8 |
| 20260510075459 | 57 | 21 | 7.0 | 12.0 | 0.00 | 0.00 | 0.00 | 28 | 1024.8 |
| 20260510074953 | 57 | 5 | 7.0 | 12.0 | 0.00 | 0.00 | 0.00 | 28 | 1024.8 |
| 20260510074447 | 58 | 0 | 7.0 | 12.0 | 0.00 | 0.00 | 0.00 | 28 | 1024.8 |
| 20260510073941 | 58 | 355 | 7.0 | 11.0 | 0.00 | 0.00 | 0.00 | 27 | 1024.7 |
| 20260510073435 | 58 | 13 | 5.0 | 10.0 | 0.00 | 0.00 | 0.00 | 27 | 1024.8 |
| 20260510072929 | 58 | 20 | 4.0 | 8.0 | 0.00 | 0.00 | 0.00 | 27 | 1024.8 |
| 20260510072424 | 58 | 39 | 4.0 | 8.0 | 0.00 | 0.00 | 0.00 | 26 | 1024.8 |
| 20260510071917 | 58 | 30 | 5.0 | 8.0 | 0.00 | 0.00 | 0.00 | 26 | 1024.8 |
| 20260510071416 | 59 | 27 | 5.0 | 11.0 | 0.00 | 0.00 | 0.00 | 26 | 1024.8 |
| 20260510070917 | 59 | 31 | 4.0 | 11.0 | 0.00 | 0.00 | 0.00 | 26 | 1024.8 |
| 20260510070414 | 59 | 22 | 4.0 | 6.0 | 0.00 | 0.00 | 0.00 | 26 | 1024.7 |
| 20260510070132 | 59 | 17 | 3.0 | 6.0 | 0.00 | 0.00 | 0.00 | 25 | 1024.7 |
| 20260510065416 | 60 | 28 | 4.0 | 9.0 | 0.00 | 0.00 | 0.00 | 25 | 1024.7 |
| 20260510064913 | 60 | 13 | 5.0 | 9.0 | 0.00 | 0.00 | 0.00 | 25 | 1024.7 |
| 20260510064412 | 60 | 14 | 6.0 | 11.0 | 0.00 | 0.00 | 0.00 | 25 | 1024.7 |
| 20260510063912 | 60 | 40 | 7.0 | 11.0 | 0.00 | 0.00 | 0.00 | 25 | 1024.7 |
| 20260510063635 | 60 | 340 | 7.0 | 11.0 | 0.00 | 0.00 | 0.00 | 25 | 1024.7 |
| 20260510063132 | 60 | 16 | 7.0 | 11.0 | 0.00 | 0.00 | 0.00 | 25 | 1024.7 |
| 20260510062412 | 60 | 15 | 7.0 | 12.0 | 0.00 | 0.00 | 0.00 | 24 | 1024.7 |
| 20260510061912 | 60 | 15 | 7.0 | 12.0 | 0.00 | 0.00 | 0.00 | 24 | 1024.5 |
| 20260510061412 | 60 | 28 | 7.0 | 13.0 | 0.00 | 0.00 | 0.00 | 24 | 1024.4 |
| 20260510060913 | 60 | 10 | 8.0 | 13.0 | 0.00 | 0.00 | 0.00 | 24 | 1024.4 |
| 20260510060411 | 60 | 45 | 7.0 | 13.0 | 0.00 | 0.00 | 0.00 | 24 | 1024.5 |
| 20260510055907 | 60 | 5 | 7.0 | 12.0 | 0.00 | 0.00 | 0.00 | 24 | 1024.4 |
| 20260510055407 | 61 | 22 | 7.0 | 12.0 | 0.00 | 0.00 | 0.00 | 24 | 1024.4 |
| 20260510054907 | 61 | 12 | 8.0 | 13.0 | 0.00 | 0.00 | 0.00 | 24 | 1024.4 |
| 20260510054407 | 61 | 9 | 7.0 | 13.0 | 0.00 | 0.00 | 0.00 | 23 | 1024.4 |
| 20260510053906 | 61 | 31 | 6.0 | 12.0 | 0.00 | 0.00 | 0.00 | 23 | 1024.4 |
| 20260510053406 | 62 | 22 | 5.0 | 12.0 | 0.00 | 0.00 | 0.00 | 23 | 1024.4 |
| 20260510052904 | 62 | 35 | 5.0 | 9.0 | 0.00 | 0.00 | 0.00 | 22 | 1024.4 |
| 20260510052405 | 62 | 38 | 5.0 | 9.0 | 0.00 | 0.00 | 0.00 | 22 | 1024.4 |
| 20260510051905 | 62 | 44 | 5.0 | 9.0 | 0.00 | 0.00 | 0.00 | 21 | 1024.4 |
| 20260510051404 | 63 | 17 | 5.0 | 9.0 | 0.00 | 0.00 | 0.00 | 21 | 1024.4 |
| 20260510050905 | 63 | 36 | 6.0 | 11.0 | 0.00 | 0.00 | 0.00 | 21 | 1024.4 |
| 20260510050404 | 63 | 5 | 7.0 | 11.0 | 0.00 | 0.00 | 0.00 | 21 | 1024.3 |
| 20260510045904 | 63 | 355 | 7.0 | 12.0 | 0.00 | 0.00 | 0.00 | 21 | 1024.3 |
| 20260510045405 | 63 | 347 | 9.0 | 15.0 | 0.00 | 0.00 | 0.00 | 21 | 1024.3 |
| 20260510044904 | 63 | 32 | 8.0 | 15.0 | 0.00 | 0.00 | 0.00 | 21 | 1024.3 |
| 20260510044405 | 63 | 24 | 7.0 | 12.0 | 0.00 | 0.00 | 0.00 | 21 | 1024.4 |
| 20260510043904 | 63 | 355 | 7.0 | 13.0 | 0.00 | 0.00 | 0.00 | 20 | 1024.4 |
| 20260510043404 | 63 | 355 | 7.0 | 13.0 | 0.00 | 0.00 | 0.00 | 21 | 1024.4 |
| 20260510042904 | 63 | 355 | 7.0 | 13.0 | 0.00 | 0.00 | 0.00 | 20 | 1024.4 |
| 20260510042404 | 63 | 322 | 9.0 | 14.0 | 0.00 | 0.00 | 0.00 | 20 | 1024.4 |
| 20260510041858 | 63 | 32 | 9.0 | 14.0 | 0.00 | 0.00 | 0.00 | 20 | 1024.4 |
| 20260510041352 | 63 | 350 | 8.0 | 13.0 | 0.00 | 0.00 | 0.00 | 20 | 1024.4 |
| 20260510041108 | 64 | 5 | 8.0 | 12.0 | 0.00 | 0.00 | 0.00 | 19 | 1024.3 |
| 20260510040340 | 64 | 5 | 9.0 | 13.0 | 0.00 | 0.00 | 0.00 | 19 | 1024.2 |
| 20260510035834 | 64 | 355 | 9.0 | 13.0 | 0.00 | 0.00 | 0.00 | 18 | 1024.2 |
| 20260510035328 | 64 | 19 | 8.0 | 12.0 | 0.00 | 0.00 | 0.00 | 18 | 1024.2 |
| 20260510034822 | 64 | 24 | 9.0 | 14.0 | 0.00 | 0.00 | 0.00 | 17 | 1024.2 |
| 20260510034536 | 65 | 355 | 8.0 | 14.0 | 0.00 | 0.00 | 0.00 | 16 | 1024.2 |
| 20260510033816 | 65 | 19 | 7.0 | 11.0 | 0.00 | 0.00 | 0.00 | 15 | 1024.2 |
| 20260510033805 | 65 | 5 | 6.0 | 10.0 | 0.00 | 0.00 | 0.00 | 15 | 1024.0 |
| 20260510032814 | 66 | 5 | 5.0 | 9.0 | 0.00 | 0.00 | 0.00 | 15 | 1023.9 |
| 20260510032314 | 66 | 5 | 6.0 | 10.0 | 0.00 | 0.00 | 0.00 | 15 | 1023.9 |
| 20260510031814 | 66 | 355 | 5.0 | 10.0 | 0.00 | 0.00 | 0.00 | 15 | 1023.8 |
| 20260510031537 | 67 | 319 | 4.0 | 12.0 | 0.00 | 0.00 | 0.00 | 14 | 1023.8 |
| 20260510030813 | 67 | 319 | 4.0 | 12.0 | 0.00 | 0.00 | 0.00 | 14 | 1023.7 |
| 20260510030311 | 67 | 336 | 4.0 | 8.0 | 0.00 | 0.00 | 0.00 | 14 | 1023.4 |
| 20260510025810 | 67 | 327 | 3.0 | 8.0 | 0.00 | 0.00 | 0.00 | 13 | 1023.4 |
| 20260510025541 | 68 | 5 | 3.0 | 8.0 | 0.00 | 0.00 | 0.00 | 13 | 1023.3 |
| 20260510024810 | 68 | 331 | 4.0 | 10.0 | 0.00 | 0.00 | 0.00 | 13 | 1023.2 |
| 20260510024312 | 68 | 340 | 5.0 | 10.0 | 0.00 | 0.00 | 0.00 | 13 | 1023.0 |
| 20260510023810 | 68 | 333 | 5.0 | 12.0 | 0.00 | 0.00 | 0.00 | 13 | 1023.0 |
| 20260510023310 | 69 | 287 | 4.0 | 12.0 | 0.00 | 0.00 | 0.00 | 13 | 1023.0 |
| 20260510022810 | 69 | 5 | 4.0 | 10.0 | 0.00 | 0.00 | 0.00 | 14 | 1022.9 |
| 20260510022530 | 69 | 298 | 5.0 | 12.0 | 0.00 | 0.00 | 0.00 | 13 | 1022.9 |
| 20260510021811 | 69 | 317 | 6.0 | 12.0 | 0.00 | 0.00 | 0.00 | 13 | 1022.8 |
| 20260510021306 | 69 | 9 | 7.0 | 18.0 | 0.00 | 0.00 | 0.00 | 13 | 1022.6 |
| 20260510020759 | 70 | 208 | 7.0 | 18.0 | 0.00 | 0.00 | 0.00 | 13 | 1022.6 |
| 20260510020254 | 70 | 290 | 6.0 | 15.0 | 0.00 | 0.00 | 0.00 | 13 | 1022.6 |
| 20260510015748 | 71 | 298 | 6.0 | 15.0 | 0.00 | 0.00 | 0.00 | 13 | 1022.6 |
| 20260510015242 | 71 | 269 | 7.0 | 15.0 | 0.00 | 0.00 | 0.00 | 12 | 1022.5 |
| 20260510014735 | 71 | 284 | 6.0 | 15.0 | 0.00 | 0.00 | 0.00 | 12 | 1022.4 |
| 20260510014230 | 72 | 307 | 6.0 | 14.0 | 0.00 | 0.00 | 0.00 | 12 | 1022.4 |
| 20260510013723 | 72 | 301 | 7.0 | 17.0 | 0.00 | 0.00 | 0.00 | 12 | 1022.4 |
| 20260510013217 | 72 | 289 | 10.0 | 22.0 | 0.00 | 0.00 | 0.00 | 11 | 1022.1 |
| 20260510012711 | 73 | 203 | 12.0 | 22.0 | 0.00 | 0.00 | 0.00 | 11 | 1022.1 |
| 20260510012424 | 73 | 273 | 9.0 | 22.0 | 0.00 | 0.00 | 0.00 | 12 | 1022.3 |
| 20260510011923 | 73 | 290 | 7.0 | 20.0 | 0.00 | 0.00 | 0.00 | 12 | 1022.3 |
| 20260510011153 | 73 | 335 | 10.0 | 20.0 | 0.00 | 0.00 | 0.00 | 12 | 1022.0 |
| 20260510010647 | 73 | 317 | 8.0 | 17.0 | 0.00 | 0.00 | 0.00 | 12 | 1022.1 |
| 20260510010141 | 73 | 295 | 8.0 | 17.0 | 0.00 | 0.00 | 0.00 | 12 | 1022.0 |
| 20260510005854 | 73 | 355 | 9.0 | 19.0 | 0.00 | 0.00 | 0.00 | 12 | 1022.0 |
| 20260510005129 | 73 | 288 | 10.0 | 20.0 | 0.00 | 0.00 | 0.00 | 12 | 1022.0 |
| 20260510004623 | 73 | 298 | 9.0 | 20.0 | 0.00 | 0.00 | 0.00 | 11 | 1022.0 |
| 20260510004118 | 73 | 301 | 9.0 | 18.0 | 0.00 | 0.00 | 0.00 | 12 | 1022.0 |
| 20260510003611 | 74 | 324 | 8.0 | 18.0 | 0.00 | 0.00 | 0.00 | 11 | 1022.0 |
| 20260510003105 | 74 | 266 | 9.0 | 19.0 | 0.00 | 0.00 | 0.00 | 11 | 1022.0 |
| 20260510002559 | 74 | 0 | 9.0 | 19.0 | 0.00 | 0.00 | 0.00 | 11 | 1021.9 |
| 20260510002053 | 74 | 313 | 10.0 | 22.0 | 0.00 | 0.00 | 0.00 | 12 | 1022.0 |
| 20260510001547 | 74 | 304 | 11.0 | 22.0 | 0.00 | 0.00 | 0.00 | 11 | 1021.9 |
| 20260510001302 | 74 | 350 | 9.0 | 20.0 | 0.00 | 0.00 | 0.00 | 11 | 1021.8 |
| 20260510000535 | 74 | 258 | 9.0 | 20.0 | 0.00 | 0.00 | 0.00 | 12 | 1021.8 |
| 20260510000030 | 74 | 319 | 10.0 | 18.0 | 0.00 | 0.00 | 0.00 | 11 | 1021.9 |
| 20260509235523 | 74 | 251 | 9.0 | 17.0 | 0.00 | 0.00 | 0.00 | 11 | 1021.8 |
| 20260509235017 | 75 | 247 | 7.0 | 17.0 | 0.00 | 0.00 | 0.00 | 11 | 1021.8 |
| 20260509234512 | 75 | 285 | 9.0 | 19.0 | 0.00 | 0.00 | 0.00 | 11 | 1021.8 |
| 20260509234006 | 76 | 331 | 11.0 | 22.0 | 0.00 | 0.00 | 0.00 | 11 | 1021.8 |
| 20260509233727 | 76 | 0 | 10.0 | 22.0 | 0.00 | 0.00 | 0.00 | 11 | 1021.6 |
| 20260509232953 | 77 | 287 | 8.0 | 18.0 | 0.00 | 0.00 | 0.00 | 10 | 1021.6 |
| 20260509232708 | 77 | 284 | 9.0 | 21.0 | 0.00 | 0.00 | 0.00 | 10 | 1021.8 |
| 20260509231941 | 78 | 325 | 11.0 | 21.0 | 0.00 | 0.00 | 0.00 | 10 | 1021.9 |
| 20260509231435 | 78 | 279 | 11.0 | 26.0 | 0.00 | 0.00 | 0.00 | 10 | 1021.8 |
| 20260509230930 | 77 | 238 | 12.0 | 26.0 | 0.00 | 0.00 | 0.00 | 11 | 1021.6 |
| 20260509230647 | 77 | 282 | 12.0 | 26.0 | 0.00 | 0.00 | 0.00 | 10 | 1021.6 |
| 20260509230150 | 77 | 244 | 11.0 | 21.0 | 0.00 | 0.00 | 0.00 | 10 | 1021.8 |
| 20260509225427 | 77 | 248 | 11.0 | 24.0 | 0.00 | 0.00 | 0.00 | 10 | 1021.8 |
| 20260509224926 | 77 | 250 | 11.0 | 24.0 | 0.00 | 0.00 | 0.00 | 10 | 1021.6 |
| 20260509224424 | 78 | 295 | 9.0 | 18.0 | 0.00 | 0.00 | 0.00 | 10 | 1021.8 |
| 20260509224142 | 78 | 321 | 9.0 | 18.0 | 0.00 | 0.00 | 0.00 | 10 | 1021.9 |
| 20260509223424 | 78 | 269 | 9.0 | 18.0 | 0.00 | 0.00 | 0.00 | 10 | 1021.9 |
| 20260509222923 | 77 | 238 | 9.0 | 17.0 | 0.00 | 0.00 | 0.00 | 10 | 1022.0 |
| 20260509222646 | 77 | 213 | 9.0 | 23.0 | 0.00 | 0.00 | 0.00 | 10 | 1022.0 |
| 20260509221924 | 77 | 236 | 11.0 | 23.0 | 0.00 | 0.00 | 0.00 | 11 | 1022.1 |
| 20260509221424 | 77 | 248 | 13.0 | 24.0 | 0.00 | 0.00 | 0.00 | 10 | 1022.0 |
| 20260509221413 | 78 | 264 | 12.0 | 24.0 | 0.00 | 0.00 | 0.00 | 10 | 1021.9 |
| 20260509220423 | 78 | 234 | 10.0 | 28.0 | 0.00 | 0.00 | 0.00 | 11 | 1022.0 |
| 20260509220126 | 77 | 143 | 9.0 | 24.0 | 0.00 | 0.00 | 0.00 | 12 | 1022.0 |
| 20260509220013 | 78 | 261 | 9.0 | 28.0 | 0.00 | 0.00 | 0.00 | 10 | 1021.9 |
| 20260509214920 | 76 | 260 | 9.0 | 24.0 | 0.00 | 0.00 | 0.00 | 12 | 1022.1 |
| 20260509214414 | 75 | 261 | 6.0 | 17.0 | 0.00 | 0.00 | 0.00 | 13 | 1022.3 |
| 20260509213907 | 74 | 278 | 6.0 | 15.0 | 0.00 | 0.00 | 0.00 | 14 | 1022.1 |
| 20260509213402 | 74 | 293 | 7.0 | 15.0 | 0.00 | 0.00 | 0.00 | 13 | 1022.5 |
| 20260509212858 | 74 | 317 | 8.0 | 17.0 | 0.00 | 0.00 | 0.00 | 14 | 1022.5 |
| 20260509212357 | 74 | 267 | 9.0 | 17.0 | 0.00 | 0.00 | 0.00 | 13 | 1022.6 |
| 20260509211858 | 74 | 325 | 9.0 | 19.0 | 0.00 | 0.00 | 0.00 | 13 | 1022.8 |
| 20260509211358 | 74 | 287 | 9.0 | 19.0 | 0.00 | 0.00 | 0.00 | 13 | 1022.9 |
| 20260509210858 | 74 | 296 | 8.0 | 17.0 | 0.00 | 0.00 | 0.00 | 14 | 1022.8 |
| 20260509210357 | 74 | 196 | 7.0 | 15.0 | 0.00 | 0.00 | 0.00 | 14 | 1022.9 |
| 20260509205858 | 74 | 316 | 7.0 | 13.0 | 0.00 | 0.00 | 0.00 | 14 | 1022.9 |
| 20260509205355 | 74 | 300 | 8.0 | 18.0 | 0.00 | 0.00 | 0.00 | 14 | 1022.9 |
| 20260509204856 | 74 | 336 | 7.0 | 22.0 | 0.00 | 0.00 | 0.00 | 14 | 1023.0 |
| 20260509204356 | 74 | 296 | 7.0 | 22.0 | 0.00 | 0.00 | 0.00 | 14 | 1023.0 |